weather.gov     
National Weather Service

Terminal Aerodrome Forecast
NWS Homepage
This page is being discontinued on March 12, 2014.
The same data is available at this site. Please update your bookmarks.
Thank you, and we apologize for the inconvenience.
Please send an email to SR-SRH.Webmaster@noaa.gov with any concerns.


Current Version
Previous Version:    01  02  03  04  05  06  07  08  09  10  11  12  13  14  15  16  17  18  19  20  21  22  23  24  25  26  27  28  29  30  
   31  
[Printable]
460
FTAK31 PAJN 250500
TAFAKT
TAF
PAKT 250520Z 2506/2606 VRB04KT P6SM -SHRA SCT025 OVC040
      TEMPO 2506/2509 6SM SHRA
     FM251200 14006KT P6SM VCSH SCT025 OVC045
     FM251800 33008KT P6SM SCT080
      AMD LTD TO CLD VIS AND WIND 2506/2515=


U.S. Dept. of Commerce
NOAA National Weather Service
1325 East West Highway
Silver Spring, MD 20910
E-mail: w-nws.webmaster@noaa.gov
Page last modified: May 16, 2007
NATIONAL WEATHER SERVICE: for Safety, for Work, for Fun - FOR LIFE